Tracking 28125 objects as of 2-Oct-2023
HD Live streaming from Space Station
objects crossing your sky now

FENGYUN 1C DEB

Track FENGYUN 1C DEB now!
10-day predictions


NORAD ID: 33673
Int'l Code: 1999-025DFJ
Perigee: 843.8 km
Apogee: 1,005.2 km
Inclination: 99.4 °
Period: 103.4 minutes
Semi major axis: 7295 km
RCS: 0.0036 m2 (small)
Launch date: May 10, 1999
Source: People's Republic of China (PRC)
Launch site: Taiyaun Space Center, China (TSC)

Note: This is SATELLITE DEBRIS
Your satellite tracking list
Your tracking list is empty




NASA's NSSDC Master Catalog

Two Line Element Set (TLE):
1 33673U 99025DFJ 23274.54756067  .00000912  00000-0  69921-3 0  9997
2 33673  99.4228 297.6052 0110656 236.3735 283.7907 13.93220245788052
Source of the keplerian elements: AFSPC